Location: Nitra
(0.0000°N, 18.0833°E)
Time: 11:14:28
(UTC+02:00)

Oscar 19 - Pass Details

Date: 17 June 2023
Orbit: 773 x 788 km, 98.9° (Epoch: 28 September)

Event Time Altitude Azimuth Distance (km) Brightness Sun altitude
Rises 03:29:45 0° 51° (NE) 3,235 14.6 -44.4°
Reaches altitude 10° 03:33:39 10° 82° (E) 2,312 13.6 -43.6°
Enters shadow 03:33:53 10° 84° (E) 2,281 13.5 -43.6°
